Wind_Speed
15 13 19 29 37 42 48 61 62 59 56 57 50 40 48 48 46 44 35 31 24 32 37 33 32 30 30 30 30 29 29 29 27 27 27 24 26 20 21 15 16 19 24 18 17 18 13 13 21 21 20 20 21 21
14 21 19 22 28 35 41 59 60 58 59 47 50 42 38 43 40 35 32 26 25 30 33 38 35 32 30 31 30 31 30 27 28 27 26 22 17 17 15 15 16 19 21 20 18 18 11 11 14 16 21 21 25 21
18 20 19 21 25 30 49 57 56 58 39 42 44 40 42 38 37 32 26 22 25 32 34 38 37 37 32 32 34 32 29 29 30 28 26 23 20 19 15 17 18 17 16 21 14 18 23 20 20 21 24 24 20 19
12 14 27 30 34 35 52 50 57 38 37 42 41 43 48 38 29 26 23 23 22 25 35 34 38 32 33 32 32 29 30 32 29 29 28 23 19 21 20 16 16 15 16 15 21 21 23 21 24 22 22 23 20 18
19 25 27 35 45 53 53 44 49 35 43 39 39 40 36 29 24 21 20 21 24 32 34 31 32 36 39 38 32 30 31 31 29 29 29 23 20 23 24 23 19 21 24 25 25 23 21 22 22 23 23 23 18 19
28 31 32 47 49 41 36 38 38 31 38 38 37 36 33 26 23 23 22 23 25 26 29 29 29 37 38 33 33 35 32 31 31 28 25 22 20 23 25 23 22 23 23 21 21 24 24 25 25 26 24 21 18 19
46 44 42 45 37 38 35 34 29 35 42 43 35 29 25 22 21 19 19 19 24 23 22 24 24 25 30 35 33 31 29 29 29 25 26 20 20 25 27 25 22 25 23 21 22 21 22 21 21 22 20 21 22 21
38 35 31 39 38 33 36 43 39 36 30 25 22 19 18 19 20 23 19 20 14 13 15 21 23 21 22 30 31 28 27 25 25 27 26 24 23 24 17 16 24 27 25 23 25 24 23 24 23 22 22 20 18 18
41 41 40 40 34 29 30 31 27 24 21 19 17 14 16 21 23 23 23 19 18 17 17 18 21 22 23 24 25 24 20 21 23 27 24 23 26 23 19 19 23 29 29 31 29 26 27 27 25 24 22 19 19 18
34 29 23 24 25 23 20 16 16 15 15 14 14 19 21 22 23 21 19 21 21 20 18 18 22 24 18 20 18 15 17 18 20 23 28 30 25 24 26 25 27 28 28 29 26 23 23 24 27 24 21 19 18 18
27 28 26 24 21 17 16 16 15 15 19 21 20 22 24 22 21 23 25 22 20 16 14 19 23 24 19 24 18 17 14 14 16 18 20 22 21 23 25 27 26 26 27 27 22 22 23 22 22 20 20 18 18 18
27 23 20 19 17 17 13 13 18 19 19 21 24 26 26 27 28 25 22 20 15 15 17 23 27 26 23 26 23 21 20 19 17 14 15 15 18 22 22 23 26 28 27 27 25 24 23 21 21 20 19 18 19 20
23 23 19 15 12 11 8 13 17 17 17 19 23 27 27 26 26 22 17 13 11 10 17 19 21 23 24 26 21 22 23 25 21 17 15 14 19 18 19 18 19 20 21 23 22 20 18 17 16 17 18 20 21 21
22 18 16 10 7 6 10 15 15 15 15 17 19 21 23 21 18 13 9 10 10 10 15 19 19 20 22 20 26 27 27 27 23 18 15 17 18 16 17 14 11 12 14 15 17 15 15 15 16 17 18 20 21 22
5 4 8 6 1 6 12 16 14 12 13 17 19 19 22 12 14 12 11 11 10 11 16 11 12 18 18 22 23 27 27 26 21 15 16 17 17 16 15 13 11 9 10 10 11 13 14 14 16 17 19 20 22 26
1 10 14 15 13 9 11 15 14 13 21 17 14 14 15 13 11 11 9 8 9 11 11 10 7 13 14 16 18 22 24 23 18 20 18 17 16 18 15 12 12 12 11 11 12 13 14 15 17 19 22 25 26 26
15 17 15 21 17 13 15 14 13 18 12 12 14 11 12 10 8 11 6 6 9 10 8 13 11 13 12 13 16 20 19 21 22 21 18 17 17 16 18 18 16 15 15 15 16 16 17 20 23 25 25 26 26 26
20 12 13 15 17 16 12 17 15 13 12 9 11 14 12 7 9 10 9 7 9 9 9 10 11 13 14 15 14 16 17 17 17 17 18 18 18 19 19 17 16 17 17 18 19 22 23 24 24 26 27 26 26 25
15 15 14 12 11 13 16 14 14 12 8 10 14 13 11 10 9 9 11 10 8 7 8 12 15 16 15 16 16 15 15 15 15 16 17 18 19 18 18 19 20 21 21 21 22 23 24 24 25 26 27 26 27 28
8 9 11 12 12 17 16 13 14 13 10 11 12 16 13 11 10 11 9 8 8 9 11 13 15 16 17 18 18 17 15 15 16 17 18 19 20 19 19 20 20 19 20 21 22 23 24 25 26 26 27 27 28 31
7 8 10 12 14 19 21 17 17 17 14 14 15 16 17 17 17 15 14 13 13 15 16 17 16 16 17 18 17 16 15 14 15 16 17 17 18 18 19 20 20 21 21 21 23 23 24 25 27 27 28 30 31 32
9 10 12 14 14 19 24 26 21 19 18 19 18 19 20 19 19 18 18 18 18 19 20 18 17 17 18 19 18 18 17 16 17 17 17 18 18 18 19 20 21 21 22 23 24 24 26 27 28 30 31 32 33 33
8 12 14 16 17 20 23 28 27 25 24 22 23 23 23 24 25 25 25 24 23 25 23 21 20 20 20 19 17 16 16 17 17 17 17 18 19 20 21 22 23 24 24 25 26 27 28 30 30 31 32 33 33 34
10 11 13 13 15 18 21 25 29 31 33 32 32 33 33 33 33 35 34 30 30 28 25 23 22 22 21 19 17 16 16 16 17 18 18 20 21 22 23 24 25 26 26 27 28 29 30 31 31 32 32 34 34 35
10 11 12 14 16 17 19 21 24 28 31 34 35 36 34 35 36 36 34 29 31 29 28 27 26 25 23 22 22 21 21 22 23 23 24 25 25 26 26 27 27 28 28 29 30 30 31 32 33 34 34 35 35 34
17 17 17 18 18 18 17 18 20 22 24 25 25 25 26 27 27 27 23 23 27 28 29 30 29 29 29 27 27 27 27 27 28 29 29 29 29 29 29 29 30 31 31 32 32 33 33 33 34 34 35 34 33 32
9 12 16 22 24 26 26 24 23 23 23 23 23 24 26 27 27 23 22 25 27 29 30 32 32 32 31 31 31 31 31 31 30 30 31 31 30 30 30 30 30 31 31 31 32 32 33 34 34 34 33 32 32 34
12 12 13 14 15 20 26 29 30 30 29 26 25 25 26 26 23 24 26 27 27 28 28 29 30 31 30 31 30 30 31 31 30 30 30 30 30 30 31 31 31 31 31 31 32 33 33 33 32 31 31 33 36 37
16 16 16 15 15 15 15 17 23 29 32 32 31 30 27 26 26 25 26 27 28 28 29 29 30 30 31 31 31 31 32 32 32 32 31 31 31 31 31 31 32 32 32 32 32 31 31 31 31 32 35 36 36 36
23 22 20 18 18 17 16 15 14 14 18 25 30 31 31 29 29 28 28 28 28 29 29 29 30 30 31 31 31 31 32 32 31 31 31 31 32 31 31 31 31 31 31 30 29 30 31 32 34 35 35 35 36 36
23 24 24 23 21 20 19 18 17 16 15 15 16 20 25 27 29 29 29 29 30 30 30 30 29 29 29 29 30 30 31 32 32 31 31 31 31 30 29 29 28 28 29 30 31 32 33 34 33 34 34 35 36 37
22 23 24 26 26 26 26 23 22 20 20 18 18 18 17 19 21 23 26 28 29 29 29 29 29 28 27 27 27 26 26 26 26 26 26 26 26 27 27 28 29 29 31 32 32 32 32 33 33 34 34 35 36 38
26 26 26 26 26 27 28 30 28 25 23 22 21 21 20 20 19 18 22 21 21 22 24 25 26 27 28 27 27 27 27 27 27 27 27 27 28 28 29 30 30 30 30 30 30 30 31 32 32 33 35 36 36 36
Wind_Direction
223 234 238 230 223 217 213 204 199 197 194 189 201 208 206 212 217 218 228 231 236 240 231 227 228 229 227 231 234 239 240 242 243 249 253 261 264 274 275 272 253 254 254 261 282 289 298 261 252 261 265 275 286 275
231 235 235 230 218 207 203 190 187 186 185 192 193 199 208 207 210 220 224 232 229 234 236 231 222 227 230 232 234 238 237 238 237 243 254 254 255 254 259 264 256 246 250 255 275 271 267 251 271 270 278 279 290 281
239 226 227 207 195 193 180 176 176 176 183 184 188 197 199 201 206 219 225 230 229 228 230 231 225 227 227 231 233 234 239 241 243 246 248 250 246 244 249 253 251 246 254 265 264 272 272 271 278 278 283 287 288 265
161 173 152 149 143 160 164 171 174 180 189 179 186 189 196 201 207 219 232 238 236 237 237 239 224 225 226 229 232 232 230 236 241 246 248 244 245 239 227 260 251 259 262 253 246 260 254 269 281 286 287 287 281 264
148 152 144 155 158 153 157 157 173 166 187 186 186 189 192 195 206 221 233 239 237 236 240 237 231 225 225 222 231 231 229 237 241 244 245 239 248 247 237 241 236 253 248 250 250 254 260 269 273 276 283 287 274 262
148 140 135 150 149 144 152 158 163 167 170 179 179 185 192 197 211 228 248 250 231 220 231 231 232 230 229 223 225 227 232 237 243 242 243 237 249 254 235 229 238 248 239 246 259 261 263 271 276 278 278 277 267 262
119 126 135 151 150 160 158 156 170 170 170 173 173 176 188 204 220 244 259 230 212 215 224 222 218 222 220 216 224 231 235 240 238 233 230 235 249 257 251 225 238 233 238 251 259 266 271 275 285 280 270 274 268 258
115 119 128 136 148 149 151 156 160 162 165 163 166 182 202 219 240 250 231 193 191 211 222 221 222 211 226 222 225 233 235 233 229 231 231 249 252 264 257 226 236 234 245 252 269 269 271 278 282 282 264 270 261 256
122 133 142 148 152 157 161 156 151 153 165 181 195 216 231 243 230 213 193 201 218 229 230 218 214 211 225 222 223 222 222 230 238 232 237 249 255 262 266 250 247 243 252 263 269 263 270 272 275 281 258 256 261 261
133 141 130 116 126 140 150 143 148 158 177 195 220 236 225 207 191 187 201 219 227 235 226 210 204 197 210 200 189 202 226 242 237 236 241 254 266 263 265 265 261 258 259 265 263 262 257 256 263 268 247 254 259 262
115 118 116 117 114 131 149 164 174 191 209 218 213 202 186 183 185 203 217 230 238 230 202 210 201 192 193 189 194 206 211 218 228 233 249 258 261 265 266 267 266 263 259 255 252 257 263 259 259 251 247 256 260 262
122 122 125 128 127 133 136 159 175 185 192 192 187 187 192 194 202 216 232 239 231 209 193 194 192 196 197 191 201 209 210 217 225 232 253 273 278 269 269 268 264 259 258 256 255 254 262 257 254 242 250 256 263 270
132 132 127 115 141 151 141 145 155 159 165 176 186 195 201 210 222 225 227 208 206 171 185 187 196 200 204 204 217 220 225 223 229 243 260 284 286 279 271 269 265 261 256 252 254 255 250 245 245 247 254 261 269 275
135 127 121 114 125 114 149 162 154 156 166 178 185 193 198 212 209 190 173 180 162 178 184 199 204 203 203 210 223 229 226 231 238 248 265 284 290 272 273 254 251 244 239 240 240 230 246 249 252 258 263 267 270 278
154 170 173 149 187 174 175 178 176 175 180 179 179 186 187 191 199 194 202 187 195 190 176 171 194 203 214 221 228 230 230 238 244 255 269 282 279 256 262 241 243 252 247 245 242 248 253 257 261 265 268 273 279 283
201 245 235 238 255 242 188 180 177 176 172 177 188 192 193 197 208 207 203 215 213 196 197 212 213 195 209 222 232 240 245 249 253 256 270 272 267 239 242 246 246 246 253 252 252 256 260 264 268 270 274 280 285 289
271 283 233 239 233 200 178 178 175 167 177 176 181 179 188 193 194 182 200 198 196 192 196 203 213 215 220 240 247 247 249 246 250 258 263 256 253 251 242 244 247 247 245 249 254 257 260 265 271 274 278 286 289 289
252 196 148 155 167 174 183 167 174 180 179 170 175 191 188 180 188 180 180 177 178 187 208 228 223 231 247 258 263 253 248 247 245 246 245 251 250 247 245 242 244 246 246 248 253 258 265 271 274 279 286 289 290 289
140 148 159 171 183 185 175 177 185 176 178 186 190 196 204 197 182 189 196 202 193 203 231 245 247 251 255 259 261 255 251 247 244 243 244 246 249 250 251 252 254 255 256 259 262 267 271 274 278 284 287 288 289 290
173 182 189 193 191 187 188 190 190 192 194 180 190 204 205 209 205 205 209 219 236 251 270 276 264 259 259 259 256 252 250 248 247 246 247 249 253 256 254 253 254 257 261 266 270 275 279 281 282 283 285 286 287 290
230 226 223 218 203 201 203 204 202 205 210 218 220 216 213 213 215 224 231 237 254 273 283 269 263 261 256 254 251 248 249 251 251 251 250 253 255 257 259 261 263 266 270 274 277 278 279 281 282 284 285 286 289 291
205 216 223 229 229 222 218 221 225 224 224 226 226 225 228 233 237 242 250 262 271 274 277 264 261 261 258 256 253 253 258 260 259 258 257 258 258 259 262 265 270 273 275 276 277 278 280 281 283 285 287 289 292 295
215 228 230 230 234 233 231 232 232 234 237 238 241 245 247 251 255 259 265 268 271 271 272 261 258 259 261 260 259 258 259 259 259 259 259 260 262 264 266 269 271 273 276 278 279 280 281 283 285 287 290 292 295 296
239 241 245 246 247 245 239 238 240 241 244 249 251 253 256 259 261 262 264 267 265 265 264 257 254 256 258 258 257 256 256 259 261 264 265 267 268 270 272 273 275 276 277 278 278 281 283 285 287 289 292 294 295 297
257 254 254 252 249 248 248 247 247 248 250 252 255 257 258 257 258 259 260 253 252 255 255 250 248 251 253 254 257 260 263 266 269 271 272 272 274 275 276 276 276 276 277 278 279 281 284 286 289 291 293 294 296 296
273 270 269 265 264 264 260 257 255 252 251 251 252 254 253 252 252 252 251 248 248 249 249 249 249 251 253 257 261 262 263 268 272 272 271 273 274 276 276 275 275 276 277 278 280 283 286 288 290 291 292 292 293 293
311 294 277 270 267 265 264 262 259 257 256 256 256 255 255 256 256 258 254 250 250 249 249 250 251 253 255 258 263 265 267 269 269 270 272 273 273 273 274 275 276 277 278 279 282 284 285 287 288 289 290 291 292 294
315 309 308 305 297 278 266 260 257 257 257 257 256 255 255 257 260 255 252 251 251 252 252 252 253 256 258 260 262 264 265 266 267 268 270 271 272 273 274 275 277 278 279 281 282 283 285 286 287 288 289 292 295 297
310 305 301 302 304 306 302 287 268 258 254 253 254 256 257 257 256 255 254 254 254 255 255 256 256 257 257 258 259 261 262 264 266 267 269 270 272 273 274 275 277 278 279 281 283 284 284 286 287 289 291 295 296 297
297 295 294 293 292 295 297 300 299 290 271 258 252 252 253 255 258 257 257 257 257 256 256 256 257 257 257 258 259 260 261 263 264 266 268 269 271 273 274 275 276 278 279 279 281 282 284 287 289 292 294 296 298 299
293 286 283 280 282 285 285 287 287 287 286 281 269 259 254 253 255 257 258 258 257 256 256 256 257 259 260 260 261 261 262 263 265 267 268 269 271 272 272 273 275 277 278 281 283 286 288 290 292 294 295 297 299 300
305 296 289 281 277 275 275 276 278 278 277 276 273 270 267 265 262 260 258 255 254 253 253 253 253 255 257 257 258 260 261 263 263 265 267 269 271 273 275 277 279 281 283 285 286 288 290 291 292 294 297 299 301 303
308 305 298 292 287 279 271 269 265 265 269 272 271 271 270 269 266 262 263 262 261 260 258 256 254 254 254 255 258 259 261 264 267 270 272 275 277 279 280 281 283 284 285 286 287 288 290 292 294 296 298 301 302 304
Height
5313 5316 5318 5321 5326 5335 5345 5361 5383 5403 5421 5436 5448 5460 5470 5483 5490 5498 5504 5509 5513 5516 5520 5526 5533 5539 5543 5547 5551 5555 5559 5561 5564 5566 5569 5572 5573 5575 5575 5576 5577 5577 5577 5580 5580 5577 5577 5577 5576 5579 5579 5577 5577 5575
5307 5311 5313 5316 5321 5329 5339 5356 5378 5398 5417 5431 5444 5455 5466 5477 5485 5491 5497 5503 5506 5510 5515 5520 5526 5532 5537 5540 5544 5548 5552 5554 5557 5560 5563 5565 5568 5569 5570 5570 5571 5572 5575 5574 5575 5574 5571 5573 5573 5573 5573 5573 5572 5570
5304 5306 5309 5313 5320 5328 5342 5360 5380 5399 5414 5427 5439 5453 5464 5472 5480 5488 5493 5496 5499 5505 5509 5511 5521 5524 5529 5534 5537 5542 5547 5550 5552 5554 5556 5558 5561 5564 5564 5566 5566 5568 5568 5568 5567 5569 5565 5565 5567 5567 5568 5567 5566 5565
5302 5304 5309 5316 5325 5338 5353 5369 5386 5400 5413 5427 5440 5451 5461 5468 5476 5483 5488 5492 5496 5499 5501 5507 5512 5516 5523 5527 5531 5536 5540 5541 5546 5547 5549 5552 5555 5558 5559 5561 5562 5564 5564 5563 5564 5565 5564 5564 5563 5563 5562 5561 5561 5561
5307 5311 5318 5325 5336 5351 5365 5379 5394 5406 5417 5428 5438 5449 5458 5466 5472 5479 5483 5487 5490 5493 5494 5500 5503 5510 5516 5521 5525 5529 5533 5537 5540 5541 5542 5547 5550 5551 5553 5553 5556 5557 5558 5558 5559 5559 5560 5560 5559 5558 5557 5556 5556 5556
5314 5320 5329 5340 5352 5363 5375 5386 5398 5408 5419 5428 5438 5447 5456 5464 5470 5475 5479 5482 5484 5486 5490 5494 5499 5504 5508 5514 5519 5524 5528 5531 5532 5535 5539 5543 5546 5544 5545 5547 5549 5550 5551 5553 5554 5554 5554 5554 5553 5552 5552 5551 5551 5551
5328 5336 5345 5356 5365 5374 5384 5394 5402 5410 5420 5430 5438 5447 5455 5461 5467 5471 5476 5477 5479 5483 5486 5491 5494 5498 5502 5509 5514 5519 5522 5524 5527 5530 5533 5538 5539 5537 5537 5541 5544 5545 5546 5548 5548 5548 5549 5548 5547 5546 5546 5546 5546 5546
5343 5348 5356 5366 5375 5383 5391 5399 5407 5415 5423 5431 5438 5445 5452 5457 5462 5467 5471 5474 5478 5481 5483 5487 5492 5497 5501 5505 5509 5514 5516 5519 5522 5525 5529 5531 5532 5531 5532 5538 5538 5538 5539 5542 5541 5542 5542 5542 5542 5541 5541 5541 5541 5541
5356 5362 5370 5377 5385 5392 5398 5405 5411 5419 5426 5432 5438 5443 5449 5454 5459 5464 5468 5472 5475 5480 5481 5485 5489 5495 5496 5500 5505 5509 5512 5515 5518 5520 5524 5525 5526 5526 5530 5530 5531 5532 5534 5534 5535 5535 5535 5535 5535 5535 5535 5536 5536 5536
5369 5375 5380 5386 5393 5399 5405 5410 5415 5421 5427 5432 5438 5443 5448 5452 5458 5462 5467 5468 5472 5474 5478 5482 5484 5490 5494 5498 5503 5508 5510 5512 5513 5517 5518 5519 5522 5522 5522 5523 5524 5525 5526 5526 5526 5526 5527 5528 5529 5529 5529 5530 5531 5531
5380 5386 5391 5396 5401 5405 5410 5415 5419 5424 5429 5434 5438 5443 5448 5453 5458 5461 5463 5467 5469 5473 5476 5479 5482 5487 5492 5496 5501 5504 5507 5508 5511 5513 5513 5515 5517 5516 5516 5515 5516 5517 5517 5518 5519 5521 5521 5522 5522 5523 5524 5525 5526 5527
5390 5394 5399 5403 5408 5411 5414 5417 5422 5426 5430 5435 5440 5444 5449 5453 5457 5460 5462 5465 5468 5470 5473 5476 5480 5485 5490 5493 5497 5501 5503 5504 5506 5508 5509 5510 5510 5508 5509 5509 5508 5508 5510 5511 5512 5514 5515 5515 5516 5518 5520 5521 5521 5522
5399 5403 5407 5410 5413 5416 5419 5421 5424 5427 5431 5436 5440 5444 5449 5453 5454 5457 5461 5464 5467 5470 5474 5477 5480 5484 5487 5492 5494 5497 5498 5500 5502 5504 5505 5506 5503 5503 5502 5502 5502 5502 5502 5504 5506 5508 5509 5511 5512 5513 5515 5515 5516 5516
5406 5409 5412 5415 5417 5419 5422 5424 5427 5430 5433 5437 5440 5444 5447 5450 5454 5458 5461 5464 5467 5471 5474 5476 5479 5483 5487 5489 5491 5492 5495 5497 5498 5500 5501 5500 5498 5498 5497 5498 5498 5498 5498 5500 5502 5504 5506 5507 5508 5509 5510 5510 5510 5510
5412 5414 5416 5418 5420 5423 5425 5427 5430 5432 5434 5437 5440 5444 5447 5451 5454 5457 5460 5463 5466 5469 5473 5476 5479 5482 5484 5486 5488 5489 5491 5492 5495 5497 5496 5495 5494 5494 5494 5495 5495 5496 5496 5498 5499 5501 5502 5503 5503 5504 5504 5504 5504 5504
5415 5417 5418 5419 5421 5424 5427 5429 5431 5433 5436 5439 5442 5446 5448 5451 5454 5457 5459 5462 5465 5468 5471 5474 5476 5478 5481 5483 5485 5486 5487 5489 5491 5490 5491 5490 5489 5490 5491 5491 5492 5493 5494 5494 5495 5497 5498 5498 5499 5499 5499 5498 5497 5496
5415 5415 5416 5418 5422 5426 5428 5430 5432 5435 5438 5441 5443 5446 5448 5451 5454 5457 5460 5462 5464 5467 5470 5472 5474 5475 5477 5479 5480 5481 5483 5483 5483 5484 5485 5486 5486 5485 5486 5487 5488 5489 5489 5490 5491 5492 5493 5493 5493 5493 5492 5491 5490 5488
5414 5415 5417 5419 5423 5426 5429 5432 5435 5437 5439 5441 5443 5446 5448 5450 5453 5456 5458 5460 5463 5465 5468 5470 5471 5472 5474 5475 5475 5475 5476 5476 5477 5478 5480 5481 5481 5482 5482 5483 5483 5484 5485 5485 5486 5486 5487 5487 5486 5486 5485 5484 5482 5481
5416 5418 5420 5423 5425 5428 5431 5434 5436 5438 5440 5441 5444 5446 5448 5451 5453 5455 5457 5460 5462 5464 5466 5467 5469 5469 5470 5470 5470 5471 5471 5472 5473 5474 5475 5476 5477 5478 5478 5479 5479 5480 5480 5480 5480 5481 5481 5480 5479 5478 5477 5476 5475 5473
5420 5422 5423 5425 5427 5429 5431 5434 5436 5438 5440 5442 5444 5446 5448 5451 5453 5455 5457 5459 5461 5462 5464 5464 5464 5464 5465 5466 5466 5466 5467 5468 5468 5469 5470 5471 5472 5473 5473 5474 5474 5474 5474 5475 5474 5474 5474 5473 5472 5471 5470 5469 5467 5465
5420 5421 5423 5425 5426 5429 5431 5433 5435 5438 5440 5442 5444 5446 5447 5449 5451 5453 5455 5457 5458 5459 5460 5459 5459 5459 5460 5461 5461 5462 5462 5463 5464 5465 5465 5466 5467 5467 5468 5468 5469 5469 5469 5468 5468 5468 5467 5466 5465 5464 5462 5460 5458 5456
5420 5421 5422 5423 5425 5428 5430 5431 5433 5435 5438 5440 5441 5443 5444 5446 5448 5450 5451 5452 5453 5454 5454 5454 5454 5455 5456 5456 5456 5457 5457 5458 5459 5459 5460 5461 5462 5462 5462 5462 5462 5462 5462 5462 5461 5460 5460 5458 5457 5455 5453 5451 5449 5446
5420 5420 5420 5421 5423 5424 5427 5428 5430 5432 5433 5435 5437 5439 5441 5442 5443 5444 5445 5447 5448 5448 5449 5449 5450 5451 5451 5451 5451 5452 5452 5453 5454 5454 5455 5455 5456 5456 5456 5456 5456 5455 5455 5454 5453 5452 5451 5450 5448 5446 5444 5442 5440 5437
5419 5419 5419 5419 5420 5421 5422 5423 5424 5426 5427 5429 5430 5431 5433 5434 5435 5436 5437 5440 5440 5441 5442 5443 5444 5445 5446 5446 5446 5447 5447 5448 5449 5449 5449 5449 5450 5449 5449 5449 5448 5448 5447 5446 5445 5444 5442 5441 5439 5437 5435 5432 5429 5426
5418 5418 5418 5416 5416 5417 5417 5418 5418 5419 5420 5421 5422 5423 5425 5425 5425 5426 5428 5432 5430 5433 5434 5436 5437 5438 5439 5439 5440 5441 5441 5442 5442 5443 5443 5443 5442 5442 5441 5441 5440 5439 5438 5437 5436 5435 5433 5431 5429 5427 5425 5422 5420 5417
5414 5414 5414 5412 5412 5412 5412 5412 5412 5412 5413 5413 5414 5416 5416 5416 5417 5418 5422 5423 5423 5425 5426 5428 5429 5430 5432 5433 5433 5433 5433 5434 5434 5434 5434 5434 5434 5434 5433 5432 5431 5430 5429 5428 5427 5425 5424 5422 5419 5417 5415 5412 5410 5408
5410 5409 5408 5406 5406 5405 5405 5405 5405 5405 5406 5406 5407 5408 5408 5408 5410 5413 5414 5414 5415 5416 5417 5419 5420 5421 5423 5424 5424 5424 5425 5425 5426 5426 5425 5425 5425 5424 5424 5423 5422 5421 5420 5419 5418 5416 5414 5412 5410 5408 5405 5403 5400 5398
5408 5405 5404 5402 5400 5398 5397 5396 5397 5397 5398 5399 5400 5400 5400 5402 5404 5404 5404 5405 5406 5407 5409 5410 5411 5412 5414 5414 5415 5416 5416 5416 5417 5417 5416 5416 5416 5415 5414 5414 5413 5412 5411 5409 5408 5406 5404 5402 5400 5398 5396 5393 5390 5387
5404 5402 5400 5398 5395 5393 5391 5389 5387 5387 5388 5389 5390 5391 5393 5393 5394 5395 5396 5397 5398 5399 5400 5401 5402 5403 5404 5405 5405 5406 5406 5407 5407 5407 5407 5407 5406 5406 5405 5404 5403 5402 5401 5399 5398 5396 5395 5393 5391 5389 5386 5383 5380 5377
5399 5396 5394 5392 5390 5388 5387 5385 5383 5381 5379 5379 5380 5382 5383 5385 5384 5386 5387 5387 5388 5389 5390 5391 5392 5393 5394 5395 5395 5396 5396 5397 5397 5397 5397 5397 5396 5396 5395 5394 5393 5392 5391 5390 5389 5387 5385 5384 5381 5379 5376 5373 5370 5367
5391 5389 5387 5385 5384 5382 5381 5379 5378 5376 5375 5374 5373 5374 5374 5375 5375 5377 5377 5377 5378 5379 5380 5381 5382 5383 5383 5384 5385 5386 5386 5386 5387 5387 5387 5387 5386 5386 5385 5385 5384 5383 5382 5381 5380 5378 5376 5374 5371 5369 5366 5363 5360 5356
5384 5381 5379 5377 5376 5375 5373 5372 5371 5370 5369 5368 5368 5368 5368 5367 5368 5368 5367 5368 5369 5370 5371 5372 5373 5374 5375 5375 5376 5377 5377 5377 5377 5378 5378 5378 5377 5377 5376 5376 5375 5374 5373 5372 5370 5368 5366 5364 5361 5358 5356 5352 5349 5345
5376 5373 5370 5368 5366 5364 5363 5362 5362 5362 5362 5361 5361 5360 5360 5360 5361 5361 5359 5360 5361 5362 5363 5364 5365 5365 5367 5368 5368 5369 5369 5369 5370 5370 5370 5369 5369 5369 5368 5367 5366 5364 5363 5362 5360 5358 5356 5354 5351 5348 5345 5342 5338 5334